When you browse on this site, cookies collect data to enhance your experience and personalize the content and advertising you see.
Visit our Privacy Policy to learn more. By continuing to use the site, you agree to this use of cookies and data.
  • In United Kingdom
  • List of Countries
  • For 7 days
  • Water Temperature
  • Weather Map
  • Weather Widgets
  • user-avatar
    Login

    Hourly Weather Dubnik

    Today, 23 October, Wednesday

    Time Temperature Precipitation Wind Pressure Humidity
    00:00 +14°C° 0 mm 1 mps 751 mmHg 82%
    01:00 +14°C° 0 mm 1 mps 751 mmHg 83%
    02:00 +14°C° 0 mm 1 mps 751 mmHg 84%
    03:00 +14°C° 0 mm 1 mps 751 mmHg 86%
    04:00 +13°C° 0 mm 2 mps 751 mmHg 88%
    05:00 +13°C° 0 mm 2 mps 751 mmHg 90%
    06:00 +13°C° 0 mm 1 mps 751 mmHg 90%
    07:00 +13°C° 0 mm 1 mps 751 mmHg 90%
    08:00 +13°C° 0 mm 0 mps 752 mmHg 89%
    09:00 +15°C° 0 mm 1 mps 752 mmHg 82%
    10:00 +18°C° 0 mm 1 mps 752 mmHg 75%
    11:00 +19°C° 0 mm 1 mps 752 mmHg 68%
    12:00 +20°C° 0 mm 1 mps 751 mmHg 65%
    13:00 +20°C° 0 mm 1 mps 751 mmHg 63%
    14:00 +21°C° 0 mm 1 mps 751 mmHg 60%
    15:00 +20°C° 0 mm 1 mps 751 mmHg 64%
    16:00 +19°C° 0 mm 1 mps 750 mmHg 67%
    17:00 +18°C° 0 mm 1 mps 750 mmHg 71%
    18:00 +16°C° 0 mm 1 mps 750 mmHg 74%
    19:00 +16°C° 0 mm 1 mps 750 mmHg 78%
    20:00 +15°C° 0 mm 2 mps 750 mmHg 81%
    21:00 +14°C° 0 mm 2 mps 750 mmHg 84%
    22:00 +14°C° 0 mm 2 mps 750 mmHg 87%
    23:00 +14°C° 0 mm 2 mps 750 mmHg 90%

    Tomorrow, 24 October, Thursday

    Time Temperature Precipitation Wind Pressure Humidity
    00:00 +13°C° 0 mm 2 mps 750 mmHg 91%
    01:00 +13°C° 0 mm 2 mps 749 mmHg 91%
    02:00 +13°C° 0 mm 2 mps 749 mmHg 92%
    03:00 +13°C° 0 mm 2 mps 749 mmHg 92%
    04:00 +12°C° 0 mm 3 mps 748 mmHg 92%
    05:00 +11°C° 0 mm 3 mps 748 mmHg 93%
    06:00 +11°C° 0 mm 3 mps 748 mmHg 92%
    07:00 +11°C° 0 mm 3 mps 748 mmHg 91%
    08:00 +12°C° 0 mm 3 mps 748 mmHg 90%
    09:00 +13°C° 0 mm 3 mps 748 mmHg 82%
    10:00 +15°C° 0 mm 4 mps 747 mmHg 74%
    11:00 +18°C° 0 mm 4 mps 747 mmHg 65%
    12:00 +20°C° 0 mm 4 mps 747 mmHg 61%
    13:00 +21°C° 0 mm 4 mps 747 mmHg 57%
    14:00 +22°C° 0 mm 4 mps 746 mmHg 53%
    15:00 +21°C° 0 mm 4 mps 746 mmHg 57%
    16:00 +20°C° 0 mm 3 mps 746 mmHg 61%
    17:00 +19°C° 0 mm 3 mps 746 mmHg 66%
    18:00 +18°C° 0 mm 3 mps 746 mmHg 68%
    19:00 +17°C° 0 mm 3 mps 746 mmHg 70%
    20:00 +17°C° 0 mm 4 mps 746 mmHg 72%
    21:00 +16°C° 0 mm 3 mps 746 mmHg 73%
    22:00 +16°C° 0 mm 3 mps 746 mmHg 74%
    23:00 +14°C° 0 mm 3 mps 746 mmHg 74%

    Day after tomorrow, 25 October, Friday

    Time Temperature Precipitation Wind Pressure Humidity
    00:00 +14°C° 0 mm 3 mps 746 mmHg 74%
    01:00 +13°C° 0 mm 3 mps 746 mmHg 73%
    02:00 +13°C° 0 mm 3 mps 746 mmHg 73%
    03:00 +13°C° 0 mm 3 mps 746 mmHg 73%
    04:00 +12°C° 0 mm 3 mps 746 mmHg 73%
    05:00 +13°C° 0 mm 2 mps 746 mmHg 73%
    06:00 +13°C° 0 mm 2 mps 746 mmHg 72%
    07:00 +13°C° 0 mm 2 mps 746 mmHg 72%
    08:00 +13°C° 0 mm 2 mps 747 mmHg 72%
    09:00 +14°C° 0 mm 3 mps 747 mmHg 66%
    10:00 +17°C° 0 mm 3 mps 747 mmHg 59%
    11:00 +19°C° 0 mm 4 mps 748 mmHg 53%
    12:00 +19°C° 0 mm 4 mps 748 mmHg 54%
    13:00 +20°C° 0 mm 4 mps 748 mmHg 55%
    14:00 +20°C° 0 mm 4 mps 749 mmHg 56%
    15:00 +19°C° 0 mm 4 mps 749 mmHg 62%
    16:00 +18°C° 0 mm 3 mps 749 mmHg 68%
    17:00 +17°C° 0 mm 3 mps 749 mmHg 74%
    18:00 +16°C° 0 mm 2 mps 749 mmHg 78%
    19:00 +15°C° 0 mm 2 mps 750 mmHg 81%
    20:00 +14°C° 0 mm 2 mps 750 mmHg 84%
    21:00 +14°C° 0 mm 2 mps 751 mmHg 86%
    22:00 +13°C° 0 mm 2 mps 751 mmHg 88%
    23:00 +13°C° 0 mm 2 mps 751 mmHg 89%

    26 October, Saturday

    Time Temperature Precipitation Wind Pressure Humidity
    00:00 +13°C° 0 mm 1 mps 751 mmHg 90%
    01:00 +12°C° 0 mm 1 mps 751 mmHg 91%
    02:00 +12°C° 0 mm 1 mps 751 mmHg 92%
    03:00 +12°C° 0 mm 1 mps 751 mmHg 93%
    04:00 +10°C° 0 mm 0 mps 751 mmHg 93%
    05:00 +10°C° 0 mm 0 mps 751 mmHg 93%
    06:00 +10°C° 0 mm 0 mps 751 mmHg 93%
    07:00 +11°C° 0 mm 1 mps 751 mmHg 93%
    08:00 +11°C° 0 mm 1 mps 751 mmHg 93%
    09:00 +13°C° 0 mm 2 mps 750 mmHg 85%
    10:00 +14°C° 0 mm 3 mps 750 mmHg 78%
    11:00 +17°C° 0 mm 3 mps 750 mmHg 70%
    12:00 +17°C° 0 mm 3 mps 750 mmHg 66%
    13:00 +18°C° 0 mm 3 mps 749 mmHg 62%
    14:00 +19°C° 0 mm 3 mps 749 mmHg 58%
    15:00 +18°C° 0 mm 3 mps 748 mmHg 63%
    16:00 +17°C° 0 mm 3 mps 748 mmHg 68%
    17:00 +17°C° 0 mm 3 mps 747 mmHg 73%
    18:00 +16°C° 0 mm 3 mps 747 mmHg 74%
    19:00 +14°C° 0 mm 3 mps 747 mmHg 75%
    20:00 +14°C° 0 mm 3 mps 747 mmHg 77%
    21:00 +13°C° 0 mm 3 mps 747 mmHg 76%
    22:00 +13°C° 0 mm 3 mps 747 mmHg 75%
    23:00 +13°C° 0 mm 3 mps 747 mmHg 74%

    27 October, Sunday

    Time Temperature Precipitation Wind Pressure Humidity
    00:00 +13°C° 0 mm 3 mps 747 mmHg 74%
    01:00 +12°C° 0 mm 3 mps 747 mmHg 75%
    02:00 +12°C° 0 mm 3 mps 747 mmHg 75%
    03:00 +12°C° 0 mm 3 mps 747 mmHg 78%
    04:00 +11°C° 0 mm 3 mps 747 mmHg 81%
    05:00 +11°C° 0 mm 3 mps 746 mmHg 84%
    06:00 +11°C° 0 mm 3 mps 746 mmHg 84%
    07:00 +11°C° 0 mm 3 mps 746 mmHg 85%
    08:00 +11°C° 0 mm 4 mps 746 mmHg 85%
    09:00 +12°C° 0 mm 4 mps 747 mmHg 78%
    10:00 +14°C° 0 mm 4 mps 747 mmHg 70%
    11:00 +17°C° 0 mm 4 mps 747 mmHg 63%
    12:00 +18°C° 0 mm 4 mps 746 mmHg 58%
    13:00 +19°C° 0 mm 4 mps 746 mmHg 53%
    14:00 +20°C° 0 mm 4 mps 746 mmHg 48%
    15:00 +19°C° 0 mm 4 mps 745 mmHg 53%
    16:00 +17°C° 0 mm 3 mps 745 mmHg 57%
    17:00 +16°C° 0 mm 3 mps 745 mmHg 62%
    18:00 +14°C° 0 mm 3 mps 745 mmHg 65%
    19:00 +14°C° 0 mm 3 mps 745 mmHg 68%
    20:00 +13°C° 0 mm 3 mps 745 mmHg 71%
    21:00 +12°C° 0 mm 3 mps 745 mmHg 74%
    22:00 +12°C° 0 mm 3 mps 745 mmHg 76%
    23:00 +12°C° 0 mm 3 mps 744 mmHg 78%

    28 October, Monday

    Time Temperature Precipitation Wind Pressure Humidity
    00:00 +12°C° 0 mm 3 mps 744 mmHg 77%
    01:00 +12°C° 0 mm 3 mps 744 mmHg 77%
    02:00 +12°C° 0 mm 4 mps 744 mmHg 76%
    03:00 +12°C° 0 mm 4 mps 744 mmHg 76%
    04:00 +11°C° 0 mm 4 mps 744 mmHg 76%
    05:00 +11°C° 0 mm 4 mps 744 mmHg 76%
    06:00 +11°C° 0.1 mm 4 mps 744 mmHg 78%
    07:00 +9°C° 0.1 mm 5 mps 744 mmHg 81%
    08:00 +9°C° 0.1 mm 5 mps 745 mmHg 84%
    09:00 +9°C° 0.2 mm 5 mps 745 mmHg 80%
    10:00 +8°C° 0.2 mm 5 mps 745 mmHg 76%
    11:00 +8°C° 0.2 mm 5 mps 746 mmHg 73%
    12:00 +10°C° 0 mm 4 mps 746 mmHg 66%
    13:00 +10°C° 0 mm 4 mps 746 mmHg 59%
    14:00 +11°C° 0 mm 4 mps 746 mmHg 52%
    15:00 +10°C° 0 mm 4 mps 746 mmHg 55%
    16:00 +9°C° 0 mm 3 mps 746 mmHg 58%
    17:00 +9°C° 0 mm 3 mps 746 mmHg 61%
    18:00 +8°C° 0 mm 3 mps 746 mmHg 63%
    19:00 +7°C° 0 mm 4 mps 746 mmHg 65%
    20:00 +6°C° 0 mm 4 mps 747 mmHg 67%
    21:00 +6°C° 0 mm 4 mps 747 mmHg 64%
    22:00 +6°C° 0 mm 4 mps 747 mmHg 61%
    23:00 +6°C° 0 mm 4 mps 747 mmHg 58%

    29 October, Tuesday

    Time Temperature Precipitation Wind Pressure Humidity
    00:00 +6°C° 0 mm 4 mps 747 mmHg 61%
    01:00 +5°C° 0 mm 4 mps 747 mmHg 64%
    02:00 +4°C° 0 mm 4 mps 747 mmHg 67%
    03:00 +4°C° 0 mm 4 mps 747 mmHg 69%
    04:00 +4°C° 0 mm 4 mps 747 mmHg 72%
    05:00 +3°C° 0 mm 4 mps 747 mmHg 75%
    06:00 +4°C° 0 mm 4 mps 747 mmHg 75%
    07:00 +4°C° 0 mm 4 mps 748 mmHg 76%
    08:00 +4°C° 0 mm 4 mps 748 mmHg 76%
    09:00 +4°C° 0 mm 4 mps 749 mmHg 68%
    10:00 +5°C° 0 mm 4 mps 749 mmHg 59%
    11:00 +5°C° 0 mm 4 mps 749 mmHg 50%
    12:00 +5°C° 0 mm 4 mps 749 mmHg 47%
    13:00 +6°C° 0 mm 4 mps 750 mmHg 44%
    14:00 +6°C° 0 mm 4 mps 750 mmHg 41%
    15:00 +5°C° 0 mm 4 mps 750 mmHg 44%
    16:00 +5°C° 0 mm 4 mps 750 mmHg 47%
    17:00 +4°C° 0 mm 3 mps 750 mmHg 50%
    18:00 +3°C° 0 mm 3 mps 751 mmHg 53%
    19:00 +1°C° 0 mm 4 mps 752 mmHg 56%
    20:00 0°C° 0 mm 4 mps 752 mmHg 58%
    21:00 +1°C° 0 mm 3 mps 753 mmHg 58%
    22:00 0°C° 0 mm 3 mps 753 mmHg 58%
    23:00 +1°C° 0 mm 2 mps 754 mmHg 58%
    Show more